This demonstration page uses our WeatherBlox Daily Observations layout. Learn more.

Hourly Observations for September 3, 2019

Temp ( °F °C ) Dew Point ( °F °C ) Humidity (%) Winds ( mph kmh ) Pressure ( in mb ) Visibility ( mi km ) Precip ( " mm )
12:15 am 00:15 Clear 75 24 67 19.7 77 77 SSW 10 17 29.79 1009 10 16.0934 0 0
12:35 am 00:35 Clear 74 23.3 67 19.6 80 80 SSW 9 15 29.79 1009 10 16.0934 0 0
12:55 am 00:55 Clear 73 22.9 67 19.6 82 82 SSW 8 13 29.79 1009 10 16.0934 0 0
1:15 am 01:15 Clear 73 22.5 67 19.5 83 83 SSW 8 13 29.8 1009 10 16.0934 0 0
1:35 am 01:35 Clear 72 22.3 66 19.1 82 82 SSW 7 11 29.8 1009 10 16.0934 0 0
1:55 am 01:55 Clear 72 22.1 66 18.8 82 82 SSW 7 11 29.8 1009 10 16.0934 0 0
2:15 am 02:15 Clear 71 21.6 65 18.5 83 83 SSW 6 9 29.8 1009 10 16.0934 0 0
2:35 am 02:35 Clear 71 21.5 64 18 81 81 SSW 7 11 29.81 1009 10 16.0934 0 0
2:55 am 02:55 Clear 69 20.7 64 17.8 84 84 SSW 6 9 29.81 1010 10 16.0934 0 0
3:15 am 03:15 Clear 69 20.6 64 17.6 83 83 SSW 7 11 29.8 1009 10 16.0934 0 0
3:35 am 03:35 Clear 68 20.1 64 17.6 86 86 SSW 6 9 29.81 1009 10 16.0934 0 0
3:55 am 03:55 Clear 69 20.4 63 17.4 83 83 SSW 5 7 29.81 1010 10 16.0934 0 0
4:15 am 04:15 Clear 69 20.5 63 17.1 81 81 SSW 7 11 29.81 1010 10 16.0934 0 0
4:35 am 04:35 Clear 67 19.2 63 17.2 88 88 SSW 8 13 29.81 1010 10 16.0934 0 0
4:55 am 04:55 Clear 66 18.8 63 17 89 89 SSW 7 11 29.82 1010 10 16.0934 0 0
5:15 am 05:15 Clear 67 19.5 62 16.8 84 84 SSW 9 15 29.81 1010 10 16.0934 0 0
5:35 am 05:35 Clear 67 19.3 62 16.7 85 85 SSW 8 13 29.81 1010 10 16.0934 0 0
5:55 am 05:55 Clear 65 18.6 62 16.5 88 88 SW 6 9 29.82 1010 10 16.0934 0 0
6:15 am 06:15 Clear 66 18.8 61 16.3 85 85 SSW 5 7 29.83 1010 10 16.0934 0 0
6:35 am 06:35 Clear 63 17 60 15.8 93 93 N 5 7 29.85 1011 10 16.0934 0 0
6:55 am 06:55 Clear 61 16.3 60 15.7 96 96 N 3 6 29.88 1012 10 16.0934 0 0
7:15 am 07:15 Sunny 60 15.7 60 15.5 99 99 N 5 7 29.88 1012 10 16.0934 0 0
7:35 am 07:35 Sunny 61 16.1 60 15.6 97 97 Calm 29.9 1013 10 16.0934 0 0
7:55 am 07:55 Sunny 62 16.5 61 16 97 97 Calm 29.9 1012 10 16.0934 0 0
8:15 am 08:15 Sunny 64 17.8 62 16.6 93 93 Calm 29.89 1012 10 16.0934 0 0
8:35 am 08:35 Sunny 66 19.1 63 17 88 88 Calm 29.88 1012 10 16.0934 0 0
8:55 am 08:55 Sunny 69 20.5 64 17.7 84 84 Calm 29.88 1012 7 11.26538 0 0
9:15 am 09:15 Sunny 72 22.2 64 17.9 77 77 S 5 7 29.86 1011 10 16.0934 0 0
9:35 am 09:35 Sunny 74 23.4 67 19.5 79 79 Calm 29.86 1011 10 16.0934 0 0
9:55 am 09:55 Sunny 75 23.9 67 19.7 77 77 N 8 13 29.87 1011 10 16.0934 0 0
10:15 am 10:15 Sunny 76 24.5 65 18.2 68 68 N 9 15 29.86 1011 10 16.0934 0 0
10:35 am 10:35 Sunny 76 24.6 66 18.8 70 70 NNE 13 20 29.88 1012 10 16.0934 0 0
10:55 am 10:55 Sunny 77 25.2 70 20.9 77 77 NE 17 28 29.89 1012 10 16.0934 0 0
11:15 am 11:15 Partly Cloudy 78 25.8 71 21.6 78 78 NE 24 39 29.89 1012 10 16.0934 0 0
11:35 am 11:35 Partly Cloudy 80 26.4 71 21.5 75 75 NE 22 35 29.88 1012 10 16.0934 0 0
11:55 am 11:55 Sunny 81 27 68 20.2 66 66 NE 21 33 29.88 1012 10 16.0934 0 0
12:15 pm 12:15 Sunny 82 27.5 67 19.5 62 62 NE 18 30 29.89 1012 10 16.0934 0 0
12:35 pm 12:35 Sunny 82 27.7 63 17.3 53 53 NE 22 35 29.89 1012 10 16.0934 0 0
12:55 pm 12:55 Sunny 82 27.6 58 14.7 45 45 NE 23 37 29.89 1012 10 16.0934 0 0
1:15 pm 13:15 Sunny 82 27.9 60 15.6 47 47 NE 18 30 29.89 1012 10 16.0934 0 0
1:35 pm 13:35 Sunny 83 28.1 61 16.1 48 48 NE 17 28 29.89 1012 10 16.0934 0 0
1:55 pm 13:55 Sunny 82 28 62 16.6 50 50 NE 18 30 29.9 1013 10 16.0934 0 0
2:15 pm 14:15 Sunny 83 28.2 62 16.8 50 50 NE 18 30 29.91 1013 10 16.0934 0 0
2:35 pm 14:35 Sunny 82 28 62 16.9 51 51 NE 17 28 29.91 1013 10 16.0934 0 0
2:55 pm 14:55 Sunny 82 27.6 62 16.9 52 52 NE 16 26 29.92 1013 10 16.0934 0 0
3:15 pm 15:15 Sunny 82 27.7 64 17.9 55 55 NE 13 20 29.92 1013 10 16.0934 0 0
3:35 pm 15:35 Sunny 82 27.6 63 17.3 53 53 NE 16 26 29.93 1013 10 16.0934 0 0
3:55 pm 15:55 Sunny 82 27.5 64 17.5 54 54 NE 15 24 29.93 1013 10 16.0934 0 0
4:15 pm 16:15 Sunny 82 27.6 65 18.3 57 57 NE 13 20 29.93 1013 10 16.0934 0 0
4:35 pm 16:35 Sunny 82 27.7 63 17.4 53 53 NE 16 26 29.93 1014 10 16.0934 0 0
4:55 pm 16:55 Sunny 81 27.3 64 17.8 56 56 NE 14 22 29.93 1013 10 16.0934 0 0
5:15 pm 17:15 Sunny 81 27.2 64 17.7 56 56 NNE 13 20 29.93 1014 10 16.0934 0 0
5:35 pm 17:35 Sunny 81 27 65 18.2 59 59 NNE 13 20 29.94 1014 10 16.0934 0 0
5:55 pm 17:55 Sunny 80 26.8 65 18.5 60 60 NE 10 17 29.94 1014 10 16.0934 0 0
6:15 pm 18:15 Sunny 80 26.5 65 18.6 62 62 NE 14 22 29.94 1014 10 16.0934 0 0
6:35 pm 18:35 Sunny 79 25.9 66 19 66 66 NE 10 17 29.96 1015 10 16.0934 0 0
6:55 pm 18:55 Sunny 77 25.2 65 18.6 67 67 ENE 8 13 29.96 1015 10 16.0934 0 0
7:15 pm 19:15 Sunny 76 24.5 66 19 72 72 NE 7 11 29.97 1015 10 16.0934 0 0
7:35 pm 19:35 Sunny 74 23.1 67 19.6 81 81 NNE 6 9 29.99 1016 10 16.0934 0 0
7:55 pm 19:55 Sunny 72 22.3 65 18.5 79 79 NNE 7 11 30 1016 10 16.0934 0 0
8:15 pm 20:15 Clear 70 21.1 64 17.6 81 81 NNE 7 11 30.01 1016 10 16.0934 0 0
8:35 pm 20:35 Clear 68 19.8 64 18 89 89 NNE 6 9 30.03 1017 7 11.26538 0 0
8:55 pm 20:55 Clear 67 19.3 63 17 87 87 NNE 5 7 30.04 1017 7 11.26538 0 0
9:15 pm 21:15 Clear 65 18.5 62 16.7 89 89 NNE 6 9 30.06 1018 10 16.0934 0 0
9:35 pm 21:35 Clear 65 18.2 62 16.5 90 90 NNE 6 9 30.06 1018 10 16.0934 0 0
9:55 pm 21:55 Clear 64 17.8 62 16.4 92 92 NNE 3 6 30.08 1018 10 16.0934 0 0
10:15 pm 22:15 Clear 63 17.2 61 16.2 94 94 NNE 5 7 30.08 1019 10 16.0934 0 0
10:35 pm 22:35 Clear 63 17 61 16 94 94 NNE 5 7 30.08 1019 10 16.0934 0 0
10:55 pm 22:55 Clear 63 17 61 16 94 94 NNE 5 7 30.09 1019 10 16.0934 0 0
11:15 pm 23:15 Clear 62 16.9 60 15.6 92 92 N 5 7 30.09 1019 10 16.0934 0 0
11:35 pm 23:35 Clear 62 16.7 60 15.5 93 93 NNE 5 7 30.09 1019 10 16.0934 0 0
11:55 pm 23:55 Clear 61 16.3 60 15.3 94 94 NNE 5 7 30.11 1020 10 16.0934 0 0

Powered by AerisWeather